When you browse on this site, cookies collect data to enhance your experience and personalize the content and advertising you see.
Visit our Privacy Policy to learn more. By continuing to use the site, you agree to this use of cookies and data.
  • In Spain
  • List of Countries
  • For 7 days
  • Water Temperature
  • Weather Map
  • Weather Widgets
  • user-avatar
    Login

    Hourly Weather Porto Velho

    Today, 22 February, Saturday

    Time Temperature Precipitation Wind Pressure Humidity
    00:00 +23°C° 0.7 mm 0 mps 751 mmHg 98%
    01:00 +23°C° 0.7 mm 0 mps 751 mmHg 99%
    02:00 +25°C° 0 mm 1 mps 751 mmHg 98%
    03:00 +25°C° 0.2 mm 1 mps 751 mmHg 98%
    04:00 +25°C° 0.2 mm 1 mps 751 mmHg 98%
    05:00 +25°C° 0.2 mm 1 mps 751 mmHg 99%
    06:00 +25°C° 0.6 mm 1 mps 751 mmHg 99%
    07:00 +25°C° 0.6 mm 1 mps 752 mmHg 99%
    08:00 +23°C° 0 mm 0 mps 752 mmHg 99%
    09:00 +24°C° 0.4 mm 0 mps 752 mmHg 97%
    10:00 +25°C° 0.4 mm 0 mps 752 mmHg 94%
    11:00 +26°C° 0.4 mm 0 mps 752 mmHg 91%
    12:00 +28°C° 0.3 mm 1 mps 751 mmHg 92%
    13:00 +28°C° 0.3 mm 1 mps 751 mmHg 94%
    14:00 +27°C° 0.3 mm 1 mps 750 mmHg 95%
    15:00 +28°C° 0.5 mm 1 mps 749 mmHg 94%
    16:00 +26°C° 0.5 mm 0 mps 749 mmHg 92%
    17:00 +26°C° 0.5 mm 0 mps 749 mmHg 91%
    18:00 +26°C° 1.1 mm 0 mps 749 mmHg 93%
    19:00 +25°C° 1.1 mm 0 mps 750 mmHg 95%
    20:00 +24°C° 1.1 mm 0 mps 751 mmHg 97%
    21:00 +24°C° 1.1 mm 0 mps 751 mmHg 97%
    22:00 +23°C° 1.1 mm 0 mps 752 mmHg 98%
    23:00 +23°C° 1.1 mm 0 mps 752 mmHg 98%

    Tomorrow, 23 February, Sunday

    Time Temperature Precipitation Wind Pressure Humidity
    00:00 +25°C° 1.8 mm 1 mps 752 mmHg 98%
    01:00 +25°C° 1.8 mm 1 mps 751 mmHg 99%
    02:00 +25°C° 1.8 mm 1 mps 751 mmHg 99%
    03:00 +24°C° 1 mm 1 mps 751 mmHg 99%
    04:00 +24°C° 1 mm 1 mps 751 mmHg 99%
    05:00 +23°C° 1 mm 1 mps 751 mmHg 99%
    06:00 +23°C° 0.6 mm 1 mps 751 mmHg 99%
    07:00 +23°C° 0.6 mm 1 mps 752 mmHg 99%
    08:00 +23°C° 0.6 mm 1 mps 752 mmHg 99%
    09:00 +23°C° 0.5 mm 1 mps 752 mmHg 98%
    10:00 +23°C° 0.5 mm 1 mps 753 mmHg 98%
    11:00 +24°C° 0.5 mm 1 mps 753 mmHg 98%
    12:00 +22°C° 0.6 mm 0 mps 752 mmHg 98%
    13:00 +22°C° 0.6 mm 0 mps 752 mmHg 98%
    14:00 +22°C° 0.6 mm 0 mps 751 mmHg 98%
    15:00 +22°C° 0 mm 0 mps 750 mmHg 98%
    16:00 +22°C° 0 mm 0 mps 750 mmHg 97%
    17:00 +23°C° 0 mm 0 mps 750 mmHg 97%
    18:00 +22°C° 0 mm 0 mps 750 mmHg 97%
    19:00 +22°C° 0 mm 0 mps 750 mmHg 98%
    20:00 +21°C° 0 mm 0 mps 750 mmHg 99%
    21:00 +21°C° 0 mm 0 mps 751 mmHg 99%
    22:00 +21°C° 0 mm 0 mps 751 mmHg 99%
    23:00 +21°C° 0 mm 0 mps 751 mmHg 99%

    Day after tomorrow, 24 February, Monday

    Time Temperature Precipitation Wind Pressure Humidity
    00:00 +21°C° 0 mm 0 mps 751 mmHg 99%
    01:00 +21°C° 0 mm 0 mps 751 mmHg 99%
    02:00 +21°C° 0 mm 0 mps 751 mmHg 99%
    03:00 +21°C° 0 mm 0 mps 751 mmHg 99%
    04:00 +21°C° 0 mm 0 mps 750 mmHg 99%
    05:00 +21°C° 0 mm 0 mps 750 mmHg 99%
    06:00 +21°C° 0 mm 0 mps 751 mmHg 97%
    07:00 +22°C° 0 mm 0 mps 751 mmHg 96%
    08:00 +23°C° 0 mm 0 mps 752 mmHg 94%
    09:00 +25°C° 0 mm 0 mps 752 mmHg 85%
    10:00 +29°C° 0 mm 1 mps 752 mmHg 76%
    11:00 +32°C° 0 mm 1 mps 752 mmHg 66%
    12:00 +32°C° 0.4 mm 1 mps 751 mmHg 66%
    13:00 +33°C° 0.4 mm 1 mps 750 mmHg 67%
    14:00 +33°C° 0.4 mm 1 mps 749 mmHg 67%
    15:00 +33°C° 0.6 mm 1 mps 748 mmHg 67%
    16:00 +31°C° 0.6 mm 0 mps 747 mmHg 68%
    17:00 +31°C° 0.6 mm 0 mps 746 mmHg 68%
    18:00 +29°C° 0 mm 0 mps 747 mmHg 76%
    19:00 +27°C° 0 mm 0 mps 747 mmHg 84%
    20:00 +25°C° 0 mm 0 mps 748 mmHg 91%
    21:00 +25°C° 0.1 mm 0 mps 749 mmHg 92%
    22:00 +25°C° 0.1 mm 0 mps 749 mmHg 93%
    23:00 +24°C° 0.1 mm 0 mps 750 mmHg 94%

    25 February, Tuesday

    Time Temperature Precipitation Wind Pressure Humidity
    00:00 +24°C° 0 mm 0 mps 749 mmHg 94%
    01:00 +24°C° 0 mm 0 mps 749 mmHg 95%
    02:00 +23°C° 0 mm 0 mps 749 mmHg 95%
    03:00 +23°C° 0 mm 0 mps 749 mmHg 96%
    04:00 +23°C° 0 mm 0 mps 749 mmHg 96%
    05:00 +23°C° 0 mm 0 mps 749 mmHg 97%
    06:00 +24°C° 0 mm 0 mps 749 mmHg 92%
    07:00 +25°C° 0 mm 0 mps 750 mmHg 87%
    08:00 +26°C° 0 mm 0 mps 751 mmHg 83%
    09:00 +29°C° 0 mm 0 mps 751 mmHg 73%
    10:00 +33°C° 0 mm 1 mps 751 mmHg 63%
    11:00 +35°C° 0 mm 1 mps 751 mmHg 53%
    12:00 +35°C° 0 mm 1 mps 750 mmHg 54%
    13:00 +35°C° 0 mm 1 mps 749 mmHg 54%
    14:00 +35°C° 0 mm 1 mps 748 mmHg 55%
    15:00 +34°C° 0.4 mm 1 mps 747 mmHg 62%
    16:00 +34°C° 0.4 mm 2 mps 747 mmHg 70%
    17:00 +31°C° 0.4 mm 2 mps 746 mmHg 77%
    18:00 +30°C° 0.2 mm 1 mps 747 mmHg 82%
    19:00 +28°C° 0.2 mm 1 mps 748 mmHg 88%
    20:00 +27°C° 0.2 mm 1 mps 748 mmHg 93%
    21:00 +27°C° 0 mm 1 mps 749 mmHg 94%
    22:00 +27°C° 0 mm 1 mps 749 mmHg 94%
    23:00 +26°C° 0 mm 1 mps 750 mmHg 94%

    26 February, Wednesday

    Time Temperature Precipitation Wind Pressure Humidity
    00:00 +24°C° 0 mm 0 mps 749 mmHg 94%
    01:00 +24°C° 0 mm 0 mps 749 mmHg 94%
    02:00 +24°C° 0 mm 0 mps 749 mmHg 94%
    03:00 +24°C° 0 mm 0 mps 749 mmHg 95%
    04:00 +26°C° 0 mm 1 mps 749 mmHg 95%
    05:00 +26°C° 0 mm 1 mps 749 mmHg 95%
    06:00 +26°C° 0 mm 1 mps 749 mmHg 93%
    07:00 +27°C° 0 mm 1 mps 750 mmHg 90%
    08:00 +27°C° 0 mm 1 mps 751 mmHg 88%
    09:00 +29°C° 0 mm 1 mps 751 mmHg 81%
    10:00 +30°C° 0 mm 1 mps 751 mmHg 74%
    11:00 +32°C° 0 mm 1 mps 751 mmHg 67%
    12:00 +32°C° 0.2 mm 1 mps 750 mmHg 65%
    13:00 +33°C° 0.2 mm 1 mps 750 mmHg 63%
    14:00 +34°C° 0.2 mm 1 mps 749 mmHg 61%
    15:00 +34°C° 0.2 mm 1 mps 748 mmHg 61%
    16:00 +33°C° 0.2 mm 1 mps 747 mmHg 62%
    17:00 +33°C° 0.2 mm 1 mps 747 mmHg 62%
    18:00 +29°C° 0.1 mm 0 mps 747 mmHg 70%
    19:00 +27°C° 0.1 mm 0 mps 748 mmHg 77%
    20:00 +25°C° 0.1 mm 0 mps 749 mmHg 85%
    21:00 +25°C° 0 mm 0 mps 749 mmHg 84%
    22:00 +25°C° 0 mm 0 mps 750 mmHg 83%
    23:00 +25°C° 0 mm 0 mps 750 mmHg 83%

    27 February, Thursday

    Time Temperature Precipitation Wind Pressure Humidity
    00:00 +25°C° 0 mm 0 mps 750 mmHg 84%
    01:00 +24°C° 0 mm 0 mps 749 mmHg 85%
    02:00 +24°C° 0 mm 0 mps 749 mmHg 86%
    03:00 +24°C° 0 mm 0 mps 749 mmHg 88%
    04:00 +23°C° 0 mm 0 mps 749 mmHg 89%
    05:00 +23°C° 0 mm 0 mps 749 mmHg 90%
    06:00 +24°C° 0 mm 0 mps 749 mmHg 87%
    07:00 +25°C° 0 mm 0 mps 750 mmHg 85%
    08:00 +26°C° 0 mm 0 mps 751 mmHg 83%
    09:00 +28°C° 0.2 mm 0 mps 751 mmHg 76%
    10:00 +32°C° 0.2 mm 1 mps 751 mmHg 69%
    11:00 +34°C° 0.2 mm 1 mps 751 mmHg 62%
    12:00 +33°C° 1.9 mm 1 mps 750 mmHg 69%
    13:00 +32°C° 1.9 mm 1 mps 749 mmHg 76%
    14:00 +31°C° 1.9 mm 1 mps 748 mmHg 84%
    15:00 +31°C° 1.3 mm 1 mps 747 mmHg 84%
    16:00 +31°C° 1.3 mm 1 mps 747 mmHg 84%
    17:00 +29°C° 1.3 mm 0 mps 746 mmHg 84%
    18:00 +28°C° 0.3 mm 0 mps 747 mmHg 87%
    19:00 +26°C° 0.3 mm 0 mps 748 mmHg 91%
    20:00 +25°C° 0.3 mm 0 mps 748 mmHg 94%
    21:00 +25°C° 0.9 mm 0 mps 749 mmHg 95%
    22:00 +24°C° 0.9 mm 0 mps 750 mmHg 96%
    23:00 +24°C° 0.9 mm 0 mps 750 mmHg 97%
    Show more